一网星座-0714星 (ONEWEB-0714)

导读 | 豆包AI

ONEWEB-0714是英国OneWeb公司的低轨宽带互联网卫星,于北京时间2022年12月8日由SpaceX猎鹰9号火箭在美国肯尼迪航天中心发射,属于OneWeb全球卫星星座组网任务的批次卫星之一。OneWeb通过搭建近地轨道卫星星座,为全球偏远地区、海陆空交通等场景提供宽带互联网接入服务,ONEWEB-0714的成功入轨,推进了OneWeb星座的组网进程,助力其覆盖全球的卫星互联网服务落地。

基本信息
目录编号:
54681
目录名称:
ONEWEB-0714
国际标识:
2022-166AR
轨道中心:
EARTH
卫星名称:
一网星座-0714星
卫星全名:
一网星座-0714星 (ONEWEB-0714)
卫星状态:
在轨 (已飞行1241 天)
发射日期:
2022-12-08 UTC
国别 :
英国 (GB)
星等 :
--
轨道信息
数据来源 国际轨道数据
星历时间: 2026-05-02T09:46:48+0800
8小时前
查看轨道信息
半长轴: 7555.897km
偏心率: 0.0002111
轨道倾角: 87.922°
近地点辐角 96.814°
升交点赤经 253.158°
平近点角 263.323°
近地点: 1176.164km
远地点: 1179.356km
周期: 108.940分钟
每日圈数: 13.218243
详细信息
平衡模式:
三轴稳定
覆盖范围:
全球
运营商:
一网卫星公司
运营商所在国:
英国
制造商(研发单位):
一网卫星公司
制造商所在国:
英国
使用方式:
暂无
卫星简介
OneWeb卫星网络由648颗重约125公斤的微型卫星组成,运行在1200公里的轨道上。 每颗卫星都能够提供至少每秒8千兆位的吞吐量,以使用其高吞吐量的Ku频段有效载荷为家庭和移动平台提供互联网接入。该卫星仍在工作。
2D轨道图
3D轨道图
轨道高度分析图
轨道倾角分析图
轨道综合分析图
查看轨道综合分析图